Flag for Peru Weather past 2 weeks in Chiclayo, Lambayeque, Peru

Now
81 °F

Sunny.


Feels Like: 83 °F
Forecast: N/A
Wind: 25 mph from South

Location: Chiclayo Airport

Current Time: Mar 6, 2015 at 5:15:35 PM

Latest Report: Mar 6, 2015 at 4:00 PM


Visibility: 10 mi

Pressure: 29.77 "Hg

Humidity: 62%

Dew point: 66 °F

Location of ChiclayoLocation

Historic Weather in Chiclayo — Graph

°F

Chiclayo temperature yesterday

Maximum temperature yesterday: 84 °F (at 11:00 AM)
Minimum temperature yesterday: 70 °F (at 3:00 AM)
Average temperature yesterday: 76 °F

Past Weeks' High & Low Weather Summary

 TemperatureHumidityPressure
High88 °F (Feb 20, 11:00 AM)94% (Feb 23, 2:00 AM)29.92 "Hg (Feb 23, 2:00 AM)
Low70 °F (Feb 23, 2:00 AM)49% (Feb 20, 3:00 PM)29.74 "Hg (Feb 22, 4:00 PM)
Average77 °F75%29.84 "Hg
* Reported Feb 19 4:00 PM — Mar 6 4:00 PM, Chiclayo, Weather by CustomWeather, © 2015

Note: Actual official high and low records may vary slightly from our data, if they occured in-between our weather recording intervals... More about our weather records

Advertising

Chiclayo weather history for previous 24 hours

 ConditionsComfort  
Time TempWeatherWind HumidityBarometerVisibility
4:00 PM
Fri, Mar 6
81 °FSunny.25 mph62%29.77 "Hg10 mi
3:00 PM84 °FSunny.22 mph55%29.77 "Hg10 mi
2:00 PM75 °FSunny.21 mph74%29.80 "Hg10 mi
1:00 PM82 °FSunny.18 mph62%29.83 "Hg10 mi
12:00 PM84 °FSunny.16 mph58%29.86 "Hg10 mi
11:00 AM82 °FSunny.12 mph62%29.89 "Hg10 mi
10:00 AM77 °FPartly sunny.12 mph74%29.89 "HgN/A
9:00 AM75 °FPartly sunny.9 mph78%29.89 "HgN/A
8:00 AM72 °FPartly sunny.6 mph88%29.86 "HgN/A
7:00 AM70 °FBroken clouds.8 mph94%29.86 "HgN/A
6:00 AM72 °FOvercast.8 mph88%29.86 "HgN/A
5:00 AM72 °FOvercast.6 mph83%29.83 "HgN/A
4:00 AM72 °FOvercast.5 mph88%29.83 "HgN/A
3:00 AM72 °FOvercast.6 mph88%29.83 "HgN/A
2:00 AM72 °FOvercast.8 mph88%29.83 "HgN/A
1:00 AM72 °FOvercast.8 mph88%29.86 "HgN/A
12:00 AM72 °FPassing clouds.9 mph83%29.86 "HgN/A
11:00 PM
Thu, Mar 5
72 °FPassing clouds.12 mph88%29.86 "HgN/A
10:00 PM73 °FOvercast.8 mph83%29.86 "HgN/A
9:00 PM73 °FPartly cloudy.9 mph78%29.83 "HgN/A
8:00 PM73 °FPartly cloudy.14 mph78%29.83 "HgN/A
7:00 PM75 °FOvercast.17 mph74%29.80 "HgN/A
6:00 PM77 °FSunny.24 mph69%29.77 "Hg10 mi
5:00 PM81 °FSunny.25 mph62%29.74 "Hg10 mi
Weather by CustomWeather, © 2015

See weather overviewHow to use our weather pages